Wetbulb
73.78 74.83 75.42 74.09 74.00 74.81 74.81 74.92 74.95 74.99 74.76 74.99 74.95 75.15 75.54 76.03 76.03 75.92 75.76 76.00 76.00 75.64 75.23 74.94 74.97 74.80 75.01 74.97 74.78 74.23 73.56 73.75 73.73 73.09 73.12 72.38 72.48 71.84 71.37 71.54 72.25 69.77 71.21
74.58 74.82 75.31 73.98 74.19 74.18 74.93 74.46 74.76 75.19 75.40 75.62 75.55 75.75 75.84 75.93 75.73 75.67 75.32 75.42 75.40 74.65 74.38 74.49 74.39 74.09 73.96 73.55 73.40 73.50 73.60 73.50 72.31 72.75 73.63 73.22 73.13 72.74 72.04 72.40 73.33 71.00 71.31
73.83 74.29 73.97 73.51 74.14 73.93 74.36 74.69 74.80 74.75 75.63 75.71 75.66 75.81 75.76 75.55 75.42 75.15 74.78 74.72 74.10 73.82 73.66 73.76 73.76 73.68 73.46 73.16 73.00 73.08 73.66 73.59 73.56 74.14 73.73 74.36 73.08 73.30 72.83 72.39 71.97 71.57 71.26
74.01 74.23 73.89 74.57 74.60 73.91 74.11 74.29 74.24 75.55 75.69 75.74 75.69 75.61 75.43 75.09 74.97 74.62 74.29 74.02 73.81 73.82 73.49 73.38 73.35 73.21 73.24 73.02 73.05 72.69 72.91 73.34 74.40 74.97 75.95 73.98 74.44 73.63 73.14 72.75 72.19 71.72 71.34
73.44 73.94 74.42 74.18 75.04 74.34 74.71 74.76 75.13 75.40 75.73 75.66 75.22 75.21 74.88 74.65 74.39 74.03 73.78 73.72 73.97 73.95 73.77 73.55 73.51 73.18 73.10 73.10 73.06 73.11 72.98 73.07 74.01 74.84 74.87 73.95 75.09 73.85 73.77 73.02 72.43 72.26 72.14
72.72 73.77 73.57 73.75 74.78 74.47 74.75 74.78 74.96 75.37 75.37 75.57 75.03 74.88 74.56 74.19 73.96 73.86 73.82 73.83 73.75 73.83 73.70 73.67 73.47 73.25 73.16 73.11 73.18 72.99 73.11 73.22 73.82 74.27 74.35 73.63 75.30 73.79 73.74 73.41 73.17 72.66 71.66
72.11 73.10 73.67 73.87 74.26 74.28 74.62 74.57 74.68 74.90 75.22 75.25 75.06 74.55 74.22 74.03 73.61 73.56 73.65 73.76 73.82 73.75 73.86 73.79 73.83 73.81 73.90 74.12 74.18 74.16 73.76 73.59 73.58 73.85 74.92 74.92 75.57 74.92 73.74 73.24 72.50 72.34 72.12
71.99 72.25 72.89 73.74 73.90 73.48 74.02 74.22 74.32 74.40 74.82 74.65 74.59 74.16 73.68 73.42 73.33 73.43 73.65 73.33 73.50 74.09 74.36 74.76 74.77 75.16 75.24 74.99 75.06 75.12 74.98 74.64 73.26 74.33 74.64 74.90 74.18 74.13 74.00 73.94 73.49 72.61 72.36
72.32 72.91 73.00 73.25 73.50 73.45 73.88 73.83 74.00 74.03 73.90 73.75 73.74 73.64 73.44 73.24 73.14 72.72 71.29 73.02 73.56 74.04 74.41 74.71 75.04 75.47 75.60 75.55 75.50 75.75 75.47 75.55 74.84 74.95 74.49 75.28 74.08 74.41 74.29 74.40 74.29 73.95 73.55
71.70 72.69 72.40 73.20 73.33 73.08 73.12 73.56 73.87 73.57 73.37 73.22 73.09 73.32 73.53 73.47 73.94 73.33 72.43 73.33 73.28 73.34 73.85 74.22 74.16 74.34 74.93 75.50 75.42 75.24 75.12 75.63 76.08 73.95 74.90 74.92 74.25 73.36 74.42 74.65 74.98 74.76 74.44
70.65 71.42 71.93 72.43 72.84 73.12 72.70 73.59 73.48 73.34 73.36 73.19 73.31 73.44 73.43 73.67 75.40 74.96 73.51 72.30 72.46 72.34 72.15 72.13 72.29 72.82 73.75 74.56 74.74 74.55 74.97 75.33 74.44 74.11 74.87 74.38 73.84 73.33 74.11 74.66 75.67 76.00 75.50
68.95 70.07 71.41 72.25 72.34 72.87 72.92 73.76 73.74 73.03 72.77 72.89 73.75 74.89 73.59 73.69 74.08 72.46 74.25 73.57 73.39 73.29 73.25 73.32 73.45 74.95 75.18 74.23 73.91 74.62 74.22 72.37 72.78 72.98 75.41 75.43 73.77 73.45 74.00 74.76 75.47 75.90 76.30
68.00 69.33 70.37 71.84 72.80 71.95 71.66 72.64 72.52 73.12 73.25 74.36 74.41 74.21 73.51 72.41 72.34 72.80 74.33 75.10 75.51 74.18 74.83 74.27 74.73 74.03 73.16 73.10 72.33 72.75 73.11 72.78 71.69 71.76 75.16 75.25 74.22 74.10 74.73 75.19 76.12 76.13 76.20
67.04 68.55 70.45 71.66 72.59 72.89 71.62 71.89 71.83 71.73 72.43 72.36 72.80 73.46 72.98 72.15 73.17 72.88 72.57 73.20 73.18 72.78 72.67 72.43 71.61 73.15 72.97 72.84 72.08 71.87 71.74 71.39 70.91 71.21 74.62 75.52 74.46 74.04 74.18 75.22 76.32 76.63 76.23
66.67 67.70 68.41 70.33 71.31 72.04 72.37 72.12 72.84 72.53 71.71 72.13 72.45 73.51 73.70 73.70 74.31 74.23 74.20 73.78 73.32 73.09 72.50 72.03 72.07 72.22 72.39 72.78 73.03 72.84 72.72 72.62 71.89 71.65 71.76 76.15 74.83 74.30 73.60 74.33 75.03 76.02 76.36
67.95 68.05 69.30 70.59 73.03 72.59 73.48 73.55 72.37 71.99 72.44 72.45 72.58 72.02 73.24 73.40 73.33 73.08 73.56 72.79 72.49 71.78 71.31 71.19 71.23 71.30 71.38 71.89 72.18 72.25 72.41 72.85 73.37 73.92 74.19 73.94 74.82 72.43 73.75 74.97 75.13 75.07 75.82
68.73 69.56 70.78 72.22 73.34 73.48 73.19 72.86 72.39 71.83 71.82 71.24 70.32 69.91 69.79 70.72 71.66 71.27 71.41 70.92 69.67 70.03 69.63 69.74 69.76 70.28 70.00 70.61 70.68 70.30 70.38 71.33 71.98 73.13 73.73 75.09 70.89 68.38 67.58 68.11 69.19 72.67 74.22
68.85 69.14 70.50 71.01 71.17 71.48 71.37 70.96 70.56 70.47 69.96 69.37 68.82 68.07 67.10 67.16 67.75 69.60 69.45 67.30 66.64 67.57 67.32 66.35 66.51 66.70 66.61 66.81 65.68 65.09 65.47 68.01 69.91 72.89 71.58 70.50 70.19 69.79 67.29 65.34 66.49 68.39 70.30
68.64 68.79 68.93 70.14 70.22 69.45 70.18 70.10 69.64 68.84 68.48 67.78 67.66 66.61 65.58 64.94 65.29 66.50 65.73 64.96 64.74 64.51 63.75 62.04 62.72 62.70 61.00 60.49 59.97 60.75 64.76 67.82 70.58 69.73 68.64 65.51 63.58 63.87 63.63 62.38 63.28 63.27 63.99
68.11 68.44 68.46 68.90 68.84 68.30 69.07 69.54 68.28 67.28 66.45 66.10 64.58 63.17 63.03 62.51 62.60 64.14 63.58 62.30 62.01 61.04 60.18 59.70 61.18 60.64 59.94 58.69 59.25 61.46 67.02 67.72 69.10 68.47 67.06 65.45 63.49 63.49 63.17 62.86 60.84 58.80 60.75
66.98 67.27 67.64 67.32 67.39 67.69 68.88 68.68 66.36 65.07 63.78 62.23 60.91 60.24 60.63 60.37 60.54 61.23 60.88 60.12 59.71 58.59 58.50 59.04 60.05 59.41 57.67 58.58 59.92 61.77 66.39 67.20 67.05 66.22 64.77 61.86 59.59 59.99 60.54 59.80 60.19 61.02 59.54
64.97 66.15 66.61 66.92 66.31 66.61 67.48 68.07 67.21 64.14 62.30 60.24 59.22 58.25 58.90 57.97 58.55 58.32 58.25 57.66 58.35 57.24 57.33 57.42 57.91 57.68 56.89 56.99 55.81 58.34 59.57 63.38 59.67 61.75 60.96 58.42 57.93 58.20 58.07 58.99 59.28 60.36 60.52
63.95 64.80 65.91 66.22 65.04 66.30 66.52 64.48 63.16 61.15 59.52 58.29 57.53 56.94 56.43 56.73 57.20 57.30 57.26 56.79 56.48 56.52 54.36 55.49 56.29 56.60 54.33 55.77 58.03 56.16 55.48 55.06 54.46 59.38 59.60 57.50 58.27 57.14 57.06 57.80 58.23 58.98 59.01
63.34 64.22 64.55 65.45 64.43 63.96 64.59 64.03 63.02 61.75 60.17 59.42 58.08 56.22 55.78 55.83 56.00 55.78 55.80 56.01 55.40 54.16 54.23 53.54 54.14 55.78 56.33 53.85 54.98 56.01 56.48 55.03 51.06 52.43 55.92 56.99 57.08 56.43 56.98 56.75 57.07 58.50 57.99
62.87 62.11 62.86 63.66 63.71 63.29 63.47 63.53 61.80 62.27 58.88 58.02 56.60 56.24 55.95 55.49 55.32 55.27 55.96 56.00 55.46 54.42 54.45 54.42 54.81 54.93 53.83 53.60 52.43 53.10 54.53 54.70 54.12 51.93 50.42 51.45 54.13 55.65 55.15 56.11 56.82 56.51 57.43
61.13 60.79 61.22 61.26 61.46 61.84 61.52 61.63 60.70 59.06 57.82 55.76 55.56 54.69 54.47 54.22 54.16 54.76 54.87 55.36 55.18 54.64 53.99 53.51 54.17 54.15 53.63 53.63 53.23 53.24 51.44 50.52 49.82 50.09 48.90 51.06 50.06 52.73 54.51 55.43 56.21 55.64 56.22
MSLP
1012.28 1014.15 1015.03 1015.37 1015.59 1015.83 1015.99 1016.11 1016.30 1016.49 1016.70 1016.80 1016.85 1017.04 1017.12 1017.15 1017.19 1017.31 1017.37 1017.35 1017.42 1017.46 1017.46 1017.52 1017.55 1017.60 1017.59 1017.65 1017.65 1017.62 1017.65 1017.60 1017.54 1017.51 1017.61 1017.70 1017.70 1017.83 1017.91 1017.83 1017.43 1017.48 1018.18
1012.28 1014.06 1015.24 1015.51 1015.78 1015.97 1016.18 1016.41 1016.62 1016.81 1016.94 1017.04 1017.15 1017.27 1017.41 1017.50 1017.49 1017.54 1017.68 1017.63 1017.60 1017.65 1017.68 1017.71 1017.78 1017.85 1017.84 1017.81 1017.84 1017.84 1017.75 1017.71 1017.62 1017.47 1017.52 1017.70 1017.74 1017.84 1017.97 1017.97 1017.66 1018.15 1018.37
1012.48 1014.17 1015.00 1015.71 1015.93 1016.24 1016.48 1016.71 1016.96 1017.07 1017.18 1017.29 1017.43 1017.57 1017.70 1017.75 1017.77 1017.84 1017.90 1017.91 1017.88 1017.89 1017.96 1017.95 1017.98 1018.01 1017.99 1017.97 1017.88 1017.86 1017.78 1017.69 1017.48 1017.12 1017.27 1016.83 1016.98 1017.73 1018.02 1018.19 1018.33 1018.44 1018.52
1012.86 1013.75 1014.82 1015.86 1016.12 1016.46 1016.77 1016.96 1017.09 1017.26 1017.39 1017.58 1017.68 1017.81 1017.94 1018.06 1018.08 1018.14 1018.18 1018.19 1018.13 1018.13 1018.15 1018.11 1018.11 1018.13 1018.08 1018.05 1017.99 1017.90 1017.78 1017.53 1017.10 1016.96 1016.16 1016.19 1016.17 1017.56 1018.02 1018.26 1018.47 1018.57 1018.60
1012.71 1013.57 1015.40 1016.00 1016.32 1016.62 1016.88 1017.15 1017.36 1017.40 1017.55 1017.73 1017.93 1018.03 1018.11 1018.25 1018.39 1018.44 1018.44 1018.42 1018.35 1018.30 1018.30 1018.27 1018.18 1018.13 1018.06 1018.00 1017.95 1017.89 1017.73 1017.34 1016.95 1016.63 1016.11 1015.65 1015.84 1017.46 1017.89 1018.19 1018.48 1018.61 1018.77
1012.50 1013.70 1015.73 1016.17 1016.45 1016.84 1017.04 1017.27 1017.51 1017.62 1017.72 1017.86 1018.09 1018.18 1018.34 1018.39 1018.45 1018.59 1018.61 1018.61 1018.49 1018.37 1018.26 1018.24 1018.16 1018.09 1018.03 1017.98 1017.87 1017.80 1017.62 1017.23 1016.83 1015.58 1015.58 1015.99 1016.08 1017.38 1017.74 1018.06 1018.21 1018.55 1018.80
1012.18 1014.02 1015.47 1016.35 1016.61 1016.93 1017.13 1017.44 1017.65 1017.80 1017.86 1018.05 1018.26 1018.35 1018.49 1018.52 1018.58 1018.63 1018.69 1018.72 1018.56 1018.48 1018.27 1018.22 1018.08 1018.05 1017.89 1017.85 1017.82 1017.73 1017.57 1017.10 1016.26 1014.93 1015.23 1015.91 1016.54 1017.33 1017.71 1018.03 1018.33 1018.55 1018.83
1012.69 1013.76 1015.59 1016.40 1016.75 1017.02 1017.37 1017.55 1017.76 1017.95 1018.02 1018.22 1018.41 1018.50 1018.56 1018.61 1018.67 1018.67 1018.66 1018.69 1018.59 1018.44 1018.28 1018.15 1017.99 1017.89 1017.80 1017.69 1017.63 1017.56 1017.44 1017.13 1016.07 1015.24 1015.01 1015.22 1016.73 1017.29 1017.63 1018.00 1018.29 1018.50 1018.71
1013.08 1013.74 1015.07 1015.81 1016.68 1017.19 1017.49 1017.72 1017.91 1018.05 1018.19 1018.44 1018.59 1018.61 1018.65 1018.60 1018.59 1018.56 1018.52 1018.51 1018.42 1018.30 1018.16 1018.07 1017.91 1017.78 1017.66 1017.54 1017.40 1017.33 1017.11 1016.65 1015.94 1014.69 1015.01 1015.27 1016.66 1017.07 1017.46 1017.83 1018.07 1018.34 1018.57
1013.47 1014.49 1014.56 1015.25 1015.98 1016.38 1017.01 1017.69 1017.91 1018.12 1018.24 1018.42 1018.57 1018.63 1018.52 1018.37 1018.22 1018.17 1018.22 1018.32 1018.30 1018.17 1018.00 1017.95 1017.80 1017.51 1017.31 1017.24 1017.06 1016.88 1016.45 1016.35 1015.55 1014.24 1014.31 1015.55 1016.56 1017.01 1017.46 1017.66 1017.84 1018.13 1018.38
1013.74 1014.09 1014.44 1014.64 1015.40 1015.11 1015.69 1017.14 1017.80 1018.04 1018.11 1018.17 1018.19 1018.27 1018.05 1017.20 1017.11 1017.40 1017.92 1018.19 1018.34 1018.17 1017.98 1017.82 1017.63 1017.33 1016.92 1016.71 1016.46 1016.13 1015.83 1015.26 1014.47 1014.23 1014.59 1015.74 1016.45 1016.89 1017.25 1017.46 1017.63 1017.80 1017.99
1013.19 1013.77 1014.02 1014.27 1015.21 1015.24 1015.62 1016.36 1016.68 1016.87 1017.02 1016.98 1016.87 1017.17 1017.00 1016.46 1016.82 1017.17 1017.40 1017.79 1017.91 1017.84 1017.71 1017.50 1017.23 1016.74 1016.25 1015.08 1015.78 1015.49 1014.82 1013.96 1013.71 1013.98 1014.76 1015.58 1016.20 1016.79 1017.13 1017.32 1017.37 1017.51 1017.69
1012.35 1013.17 1013.66 1014.39 1015.06 1014.69 1014.82 1015.55 1015.68 1015.70 1016.11 1016.68 1017.09 1017.27 1016.76 1016.61 1016.44 1016.38 1016.08 1016.80 1016.88 1017.21 1016.34 1016.87 1016.29 1015.65 1015.70 1015.62 1015.08 1014.65 1014.84 1014.79 1014.01 1013.78 1015.04 1015.40 1015.95 1016.57 1016.90 1017.04 1017.09 1017.22 1017.37
1012.06 1013.00 1013.45 1014.34 1015.12 1014.69 1014.51 1015.25 1015.17 1015.36 1015.68 1016.01 1016.42 1017.23 1017.11 1016.76 1016.39 1016.41 1015.89 1015.99 1016.10 1016.05 1016.35 1016.02 1015.75 1016.26 1016.27 1015.90 1015.46 1015.36 1015.27 1015.02 1014.42 1014.27 1014.66 1015.46 1015.74 1016.25 1016.62 1016.81 1016.86 1016.92 1017.09
1012.38 1013.21 1013.65 1014.31 1015.05 1015.15 1015.31 1015.09 1015.46 1015.43 1015.97 1015.90 1016.73 1017.15 1016.88 1016.48 1016.51 1016.86 1016.68 1016.82 1016.82 1016.84 1016.52 1016.53 1016.34 1016.58 1016.38 1015.77 1015.51 1015.68 1015.63 1015.60 1015.20 1014.97 1014.70 1015.29 1015.79 1015.94 1016.47 1016.76 1016.78 1016.78 1016.94
1012.81 1013.51 1013.69 1014.29 1014.93 1015.19 1015.46 1015.64 1015.81 1016.00 1016.58 1016.70 1017.12 1017.66 1017.72 1017.29 1017.57 1017.18 1017.03 1017.07 1017.22 1017.33 1017.30 1017.12 1016.82 1016.90 1016.55 1016.07 1015.92 1015.87 1015.98 1015.72 1015.38 1015.43 1015.05 1015.27 1016.36 1017.00 1017.03 1016.91 1016.78 1016.66 1016.62
1013.60 1014.03 1014.69 1014.63 1015.06 1015.42 1016.00 1016.39 1016.20 1016.48 1016.49 1017.03 1017.75 1018.26 1018.30 1018.27 1018.23 1018.14 1017.49 1017.64 1017.85 1017.99 1017.79 1017.55 1017.38 1016.95 1016.64 1016.07 1016.08 1015.99 1015.85 1015.54 1015.52 1015.58 1015.87 1015.97 1017.22 1017.46 1017.99 1018.01 1017.68 1017.36 1016.90
1014.27 1014.99 1015.21 1015.09 1015.94 1016.36 1016.49 1016.73 1016.58 1016.95 1017.18 1017.57 1017.89 1018.43 1018.76 1018.71 1018.87 1018.34 1017.96 1018.45 1018.86 1018.27 1018.07 1018.11 1017.82 1017.41 1017.17 1016.83 1016.58 1016.31 1015.97 1015.90 1015.79 1016.31 1017.05 1017.25 1017.20 1017.25 1017.88 1018.69 1018.55 1018.35 1018.00
1014.72 1015.37 1015.64 1015.74 1015.94 1016.67 1017.11 1016.91 1017.22 1017.87 1017.67 1018.07 1018.26 1018.64 1019.27 1019.27 1019.20 1018.82 1018.79 1019.04 1019.11 1018.57 1018.52 1018.73 1018.32 1018.16 1017.71 1017.52 1016.99 1016.24 1016.11 1016.03 1016.29 1016.97 1017.56 1017.84 1017.96 1018.04 1018.41 1018.83 1018.96 1019.11 1019.04
1014.93 1015.38 1016.07 1016.21 1016.76 1017.41 1017.38 1017.33 1017.19 1017.78 1018.10 1018.44 1018.97 1019.58 1019.88 1019.78 1019.76 1019.34 1019.34 1019.72 1019.11 1019.12 1019.17 1019.47 1019.12 1018.76 1018.39 1018.09 1017.32 1016.03 1016.34 1016.41 1016.78 1017.03 1017.33 1017.65 1018.09 1018.06 1018.39 1018.74 1018.94 1019.31 1019.48
1014.99 1015.29 1016.21 1016.32 1016.96 1017.41 1017.78 1017.64 1017.13 1017.56 1018.54 1019.13 1019.97 1020.36 1020.30 1020.39 1020.24 1020.07 1019.64 1019.84 1019.47 1019.93 1020.40 1020.08 1019.33 1018.81 1018.45 1018.60 1017.57 1016.23 1016.61 1017.06 1017.00 1017.01 1017.27 1018.02 1018.55 1018.09 1018.48 1018.76 1018.77 1018.84 1019.23
1014.87 1015.14 1015.61 1016.19 1017.01 1017.29 1017.07 1017.39 1017.35 1017.91 1018.83 1019.69 1020.40 1020.74 1020.68 1021.00 1020.97 1020.63 1020.97 1020.80 1020.51 1020.15 1020.77 1020.71 1020.19 1019.19 1018.71 1019.42 1018.53 1017.36 1015.98 1016.53 1016.72 1017.57 1017.79 1018.57 1018.85 1018.37 1018.55 1018.80 1019.20 1019.14 1019.19
1014.24 1014.81 1015.21 1015.92 1016.85 1017.06 1017.06 1017.81 1018.32 1019.14 1019.77 1019.90 1020.29 1020.52 1021.16 1021.32 1021.31 1021.23 1021.58 1021.75 1021.17 1020.58 1020.92 1021.33 1021.01 1020.12 1019.23 1019.23 1019.55 1018.76 1017.23 1016.61 1017.10 1017.27 1017.98 1018.59 1018.75 1018.64 1018.92 1018.82 1019.32 1019.33 1019.59
1013.84 1014.59 1015.11 1015.68 1016.50 1017.16 1017.56 1017.61 1018.09 1018.18 1018.42 1018.95 1019.77 1020.86 1021.29 1021.52 1021.40 1021.79 1022.29 1022.21 1022.12 1021.79 1021.70 1022.04 1021.71 1021.01 1019.47 1019.38 1019.75 1019.91 1020.01 1019.84 1018.71 1017.27 1017.33 1018.05 1018.44 1018.54 1018.85 1018.95 1019.14 1019.16 1019.68
1013.67 1014.53 1015.26 1015.94 1016.54 1017.11 1017.59 1017.57 1018.24 1018.10 1019.03 1019.51 1020.22 1020.91 1021.42 1021.75 1021.83 1022.08 1022.20 1022.24 1021.99 1021.75 1022.31 1022.47 1022.23 1021.32 1020.86 1020.49 1020.61 1020.10 1020.30 1020.02 1020.09 1019.39 1018.31 1018.50 1018.47 1018.28 1018.49 1018.79 1019.25 1019.11 1019.43
1013.77 1014.75 1015.58 1016.32 1016.93 1017.56 1017.97 1018.21 1018.34 1018.73 1019.12 1019.65 1020.36 1020.58 1020.63 1021.31 1021.87 1022.39 1022.47 1022.49 1022.56 1022.47 1022.54 1022.56 1022.26 1022.17 1022.15 1022.02 1021.49 1021.15 1021.04 1020.74 1020.55 1020.14 1019.66 1019.17 1019.12 1018.59 1018.40 1018.51 1018.63 1019.00 1019.30
Wind_Speed
16 17 12 12 10 11 11 12 12 12 12 11 12 12 12 13 13 13 13 13 12 12 13 12 12 11 11 10 9 8 8 8 7 7 9 10 11 9 7 6 6 14 10
20 17 10 12 11 11 11 11 11 11 10 10 12 12 12 12 13 13 11 11 11 12 11 11 11 10 10 9 8 6 5 4 2 3 8 10 10 10 8 10 15 12 10
19 16 14 13 12 12 11 12 10 10 10 11 11 11 12 11 11 10 10 9 10 10 10 10 9 9 8 8 8 6 5 2 4 8 10 8 13 11 8 8 10 10 10
17 15 14 11 12 12 11 11 12 10 10 10 11 11 11 10 10 9 9 8 8 8 8 8 8 7 7 7 6 6 5 4 8 11 10 14 14 14 10 8 8 8 9
15 15 15 12 12 12 11 10 9 9 10 10 10 10 10 9 9 8 8 8 8 7 7 7 6 6 7 7 6 6 6 8 11 12 14 3 11 13 12 9 10 8 7
17 17 15 13 12 11 11 9 8 8 9 9 9 9 9 9 8 7 6 6 6 7 7 6 6 6 6 6 6 6 7 10 12 12 6 6 7 15 12 8 7 9 6
17 18 16 13 12 11 10 9 8 7 8 8 7 7 7 7 6 5 5 6 6 6 6 6 6 6 6 6 7 7 6 11 13 4 7 1 12 11 10 8 6 7 7
11 17 15 12 10 11 9 9 7 6 6 6 6 5 5 5 4 4 4 4 5 6 6 7 6 7 8 7 8 8 8 10 12 4 3 4 12 10 9 8 7 7 7
11 16 13 13 12 9 10 8 6 6 5 4 4 4 2 1 2 2 2 2 4 4 5 6 7 7 7 8 8 8 9 12 12 1 5 6 11 10 10 8 8 8 8
12 11 13 12 13 12 12 10 8 5 3 2 1 1 4 7 9 8 7 6 5 3 2 1 3 6 7 8 8 9 13 12 14 5 8 9 11 7 7 9 10 10 10
9 10 11 14 9 11 14 11 9 8 6 6 8 9 10 10 11 15 10 4 1 1 1 2 4 8 10 11 12 12 13 8 3 4 7 14 10 7 8 9 10 11 12
14 14 12 9 11 11 5 11 10 10 9 10 8 5 7 2 3 6 4 11 9 9 8 8 9 12 14 6 9 13 7 9 2 3 9 13 9 6 7 9 10 11 11
15 13 15 12 11 12 10 8 7 6 5 3 4 4 4 5 6 8 5 9 10 12 8 11 10 6 11 7 9 7 6 7 7 6 10 12 9 4 6 9 11 11 10
13 11 9 10 7 7 6 5 6 5 5 4 5 3 5 5 4 4 4 7 3 3 4 4 5 6 7 7 9 8 8 8 7 6 3 10 10 6 6 9 11 12 11
12 11 11 10 9 6 4 5 4 3 5 3 3 2 7 5 4 4 5 6 4 5 5 6 6 6 8 9 6 7 8 9 9 6 7 10 7 6 2 6 9 12 12
10 11 10 10 9 10 7 4 4 3 5 3 3 4 1 4 3 4 3 3 4 4 5 5 6 6 6 8 7 7 8 8 8 7 6 5 15 24 23 18 11 9 10
8 8 9 8 8 5 6 6 4 5 5 4 5 4 4 5 2 5 3 3 5 6 7 6 7 6 7 7 7 8 7 7 6 6 7 8 9 23 22 22 23 23 15
9 8 8 7 9 7 6 5 5 4 4 4 4 4 5 5 4 1 2 4 6 5 5 6 7 7 7 7 7 6 5 5 5 6 8 8 9 8 14 18 21 21 24
9 9 8 6 9 8 6 5 4 5 4 4 4 5 5 5 5 4 4 4 6 5 5 6 6 5 6 6 7 5 2 1 5 8 6 8 9 9 7 12 14 18 19
10 10 6 7 7 6 3 5 5 5 4 4 5 6 6 6 6 6 4 5 5 5 5 6 4 5 4 7 8 3 3 2 6 4 5 7 8 6 8 8 5 7 13
11 11 11 8 9 9 8 8 6 6 4 5 5 5 6 6 6 6 4 3 4 6 6 7 5 3 5 8 9 4 6 5 4 3 5 7 8 7 8 8 7 5 4
12 12 12 11 9 8 6 5 1 4 3 4 5 6 8 7 6 7 5 4 6 5 7 7 7 5 5 8 6 7 4 8 4 7 5 7 7 6 8 8 8 8 8
14 13 12 12 11 9 5 5 4 5 6 5 6 5 6 6 7 7 6 5 5 6 6 7 7 7 4 5 9 6 4 3 4 8 7 6 6 5 7 6 8 7 8
13 12 11 11 10 7 7 8 7 7 6 6 4 6 6 7 7 8 5 6 7 5 7 6 5 4 6 6 4 6 7 7 5 2 3 7 5 6 7 6 7 5 6
13 11 10 10 10 9 8 5 6 6 6 5 6 7 8 6 6 6 5 5 5 5 7 6 6 9 6 6 5 4 3 2 4 3 3 6 6 3 6 4 4 5 6
12 11 11 11 9 8 7 5 4 7 6 7 7 7 7 7 6 5 6 6 6 5 6 6 7 9 8 7 5 5 5 4 5 4 5 6 7 6 4 4 5 5 5
Wind_Direction
112 116 125 128 126 117 117 115 111 111 113 115 107 102 97 93 90 85 82 79 77 75 76 74 72 69 70 65 62 68 66 69 79 97 101 102 100 90 68 37 239 92 90
114 121 129 132 131 126 122 119 115 119 118 109 106 101 95 90 88 83 77 75 75 71 68 70 67 63 61 60 58 51 60 71 73 156 140 129 113 97 76 57 57 96 98
118 124 134 137 133 130 126 128 130 124 116 111 107 100 95 91 86 82 78 73 70 68 63 61 58 54 52 47 45 37 32 43 233 242 201 191 120 115 103 85 91 102 102
123 132 134 133 132 131 130 133 130 121 113 107 102 100 96 92 84 75 68 64 62 59 59 57 50 40 37 37 32 26 12 334 260 249 258 185 118 131 131 124 120 117 119
131 126 116 131 130 131 129 128 125 116 110 103 101 98 93 84 74 65 55 43 44 42 44 42 41 30 21 13 6 2 352 313 298 275 229 29 101 135 142 146 152 148 125
136 120 129 135 131 134 128 128 122 111 104 104 99 94 89 81 72 58 45 39 30 21 18 19 16 10 359 349 343 342 331 305 298 272 60 95 107 136 145 156 118 125 138
132 117 132 133 138 130 132 132 127 114 104 96 97 91 87 81 68 54 33 17 12 3 354 349 347 332 335 328 326 324 314 302 294 73 120 346 96 138 151 160 160 158 160
112 131 135 140 136 147 133 136 134 133 110 105 102 94 81 71 66 52 38 8 354 330 324 317 318 312 312 310 308 305 300 285 283 145 55 149 126 145 166 173 180 183 183
161 116 133 143 149 145 145 143 131 114 100 102 92 91 91 138 168 193 160 0 336 300 296 298 298 301 297 294 293 292 281 267 276 103 288 101 133 154 180 190 198 203 204
138 140 166 148 158 169 159 163 148 143 140 135 161 211 236 226 209 211 177 79 16 6 15 295 279 272 262 252 250 256 256 261 262 345 201 109 138 162 181 205 209 211 216
139 165 143 174 156 180 162 149 165 178 190 205 215 218 239 237 185 174 95 109 165 312 282 271 261 255 247 240 226 226 242 229 216 51 73 125 138 181 195 212 222 218 214
168 164 160 169 163 182 160 149 200 177 197 201 200 177 242 111 341 321 147 177 194 198 214 219 238 251 251 235 195 219 241 338 302 265 101 124 137 194 214 225 232 233 224
164 165 170 172 177 181 193 172 184 175 206 184 241 257 253 300 205 213 184 188 196 205 210 210 213 245 359 322 315 328 334 290 321 324 112 126 134 197 243 240 242 244 241
155 157 154 158 180 244 181 204 189 216 177 197 166 223 234 232 194 272 309 354 241 14 339 287 315 16 299 310 297 318 314 300 306 328 111 131 140 173 236 252 254 251 246
164 153 177 153 176 185 233 181 226 192 205 112 198 87 306 289 6 311 14 308 335 345 341 330 325 340 310 294 318 335 317 318 299 302 309 150 141 160 357 310 280 275 263
161 164 140 177 157 183 212 184 164 200 92 179 100 37 80 319 0 304 284 328 336 338 335 327 346 311 313 304 307 308 306 295 299 310 319 323 77 59 44 36 14 326 299
160 155 165 158 167 161 142 172 173 173 142 129 106 83 63 360 67 322 4 330 8 332 327 329 323 314 303 297 313 295 299 288 300 313 339 25 104 74 52 40 39 30 41
152 167 178 171 150 167 147 172 152 135 128 123 114 93 55 52 21 296 358 20 354 323 333 339 325 320 317 327 311 297 315 315 343 55 36 19 18 23 63 44 44 40 47
163 169 175 177 153 158 158 141 127 124 133 108 108 84 46 45 25 342 25 35 322 341 0 341 338 356 325 320 298 275 358 307 28 62 66 64 49 42 42 44 47 43 37
173 166 177 176 117 123 149 174 143 135 126 101 66 56 17 36 21 337 57 6 340 21 20 355 336 351 349 336 302 334 334 60 110 114 52 44 29 38 44 50 61 46 45
184 176 180 183 164 179 177 204 171 161 118 104 93 73 60 35 38 9 35 24 69 44 23 6 330 69 16 350 272 194 120 146 64 49 56 43 12 33 44 32 25 17 80
185 186 178 187 169 210 186 229 203 123 101 101 92 74 66 55 42 70 16 46 358 93 36 18 19 325 67 22 348 276 192 156 135 64 47 54 22 30 33 42 28 37 10
187 186 184 182 176 207 165 116 127 118 143 163 137 106 84 78 78 68 55 39 54 33 58 17 355 26 38 70 30 344 299 32 331 141 112 67 24 32 15 26 44 41 26
186 185 182 182 169 180 175 172 178 200 185 97 123 92 102 91 80 86 82 76 52 52 51 36 6 341 11 34 47 62 45 19 358 211 109 70 0 22 32 11 29 43 24
178 178 166 169 167 151 184 175 179 214 116 146 113 133 87 86 89 96 90 79 64 80 70 55 39 26 50 29 23 18 14 132 33 344 321 355 5 3 7 21 11 19 21
169 165 156 157 151 154 160 157 208 121 157 135 153 164 149 129 117 90 92 89 75 80 63 58 58 50 49 28 27 18 21 8 7 352 333 337 335 341 8 8 17 14 7